STARLETTE 1 07646U 75010A 24289.87847304 -.00000111 00000-0 23938-4 0 9995 2 07646 49.8262 349.6276 0205731 210.1672 148.7242 13.82334999510252 LAGEOS 1 1 08820U 76039A 24289.46398810 .00000024 00000-0 00000-0 0 9993 2 08820 109.8569 330.5015 0043990 72.6995 284.0253 6.38664961874190 EGS (AJISAI) 1 16908U 86061A 24289.93376392 -.00000101 00000-0 -26089-4 0 9995 2 16908 50.0083 220.8256 0011424 69.3150 36.2571 12.44508226404526 LAGEOS 2 1 22195U 92070B 24289.39832285 -.00000009 00000-0 00000-0 0 9992 2 22195 52.6583 292.0398 0137502 280.2222 217.5532 6.47293788755948 STELLA 1 22824U 93061B 24289.94080206 -.00000006 00000-0 16289-4 0 9998 2 22824 98.8640 338.0224 0005954 199.0375 264.3219 14.27437687617857 LARES 1 38077U 12006A 24289.88807751 -.00000042 00000-0 -20343-4 0 9997 2 38077 69.4880 252.9828 0011390 259.8900 100.0841 12.54931711580624